User: anonymous   Login
Location: Myra
(43.4160°N, 88.0960°W)
Time: 19:12:52
(UTC-05:00)
Language:

SL-8 R/B - Orbit

View from above orbital plane
View from above orbital plane
View from above satellite
View from above satellite

Ground track
Ground track

The orbit data is extracted from the following two-line orbital elements,

1 33066U 08031G   16269.17122911  .00000011  00000-0  34527-4 0  9995
2 33066  48.4431 269.9429 0007106  74.7862 335.0139 14.69470819443782
Epoch (UTC): 25 September 2016 04:06:34
Eccentricity: 0.0007106
inclination: 48.4431°
perigee height: 658 km
apogee height: 668 km
right ascension of ascending node: 269.9429°
argument of perigee: 74.7862°
revolutions per day: 14.69470819
mean anomaly at epoch: 335.0139°
orbit number at epoch: 44378

The dashed part of the orbit path shows where the satellite is in the earth's shadow,  

DLR